Tracking 28091 objects as of 30-Sep-2023
HD Live streaming from Space Station
objects crossing your sky now

STARLINK-30329

Track STARLINK-30329 now!
10-day predictions
STARLINK-30329 is classified as:


NORAD ID: 57635
Int'l Code: 2023-122D
Perigee: 559.4 km
Apogee: 560.9 km
Inclination: 43.0 °
Period: 95.7 minutes
Semi major axis: 6931 km
RCS: Unknown
Launch date: August 17, 2023
Source: United States (US)
Launch site: AIR FORCE EASTERN TEST RANGE (AFETR)
Your satellite tracking list
Your tracking list is empty




NASA's NSSDC Master Catalog

Two Line Element Set (TLE):
1 57635U 23122D   23273.14032046  .00008728  00000-0  62682-3 0  9995
2 57635  42.9983 259.5852 0001117 253.6096 106.4624 15.04507006  8009
Source of the keplerian elements: AFSPC